* Astronomy

Members Login
Username 
 
Password 
    Remember Me  
Post Info TOPIC: Asteroid 451 Patientia


L

Posts: 131433
Date:
RE: Asteroid 451 Patientia
Permalink  
 


Opposition: 1 May 2009   

Ephemeris
Date       UT      R.A. (J2000) Decl.    Delta     r     El.    Ph.   V     
h m s
2009 05 01 000000 15 07 52.3 -01 03 29 2.287 3.266 163.6 5.0 11.4
2009 05 02 000000 15 07 03.8 -01 02 05 2.286 3.267 163.9 4.9 11.4
2009 05 03 000000 15 06 15.0 -01 00 48 2.286 3.267 164.1 4.9 11.4
2009 05 04 000000 15 05 26.0 -00 59 37 2.286 3.267 164.2 4.8 11.4
2009 05 05 000000 15 04 36.8 -00 58 32 2.285 3.268 164.3 4.8 11.4
2009 05 06 000000 15 03 47.6 -00 57 34 2.286 3.268 164.2 4.8 11.4
2009 05 07 000000 15 02 58.3 -00 56 43 2.286 3.268 164.1 4.9 11.4
2009 05 08 000000 15 02 09.0 -00 55 59 2.287 3.269 163.9 4.9 11.4
2009 05 09 000000 15 01 19.7 -00 55 22 2.288 3.269 163.6 5.0 11.4
2009 05 10 000000 15 00 30.5 -00 54 52 2.289 3.269 163.3 5.1 11.4
2009 05 11 000000 14 59 41.4 -00 54 29 2.291 3.270 162.8 5.2 11.4
2009 05 12 000000 14 58 52.4 -00 54 14 2.293 3.270 162.3 5.4 11.4
2009 05 13 000000 14 58 03.6 -00 54 05 2.295 3.270 161.8 5.5 11.5
2009 05 14 000000 14 57 15.1 -00 54 05 2.298 3.271 161.2 5.7 11.5
2009 05 15 000000 14 56 26.9 -00 54 12 2.300 3.271 160.6 5.9 11.5
2009 05 16 000000 14 55 39.0 -00 54 26 2.303 3.271 159.9 6.1 11.5
2009 05 17 000000 14 54 51.4 -00 54 48 2.307 3.272 159.2 6.3 11.5
2009 05 18 000000 14 54 04.3 -00 55 18 2.310 3.272 158.4 6.5 11.5
2009 05 19 000000 14 53 17.6 -00 55 56 2.314 3.272 157.6 6.8 11.5
2009 05 20 000000 14 52 31.4 -00 56 42 2.318 3.272 156.8 7.0 11.5
2009 05 21 000000 14 51 45.7 -00 57 36 2.322 3.273 156.0 7.2 11.6
2009 05 22 000000 14 51 00.6 -00 58 37 2.327 3.273 155.1 7.5 11.6
2009 05 23 000000 14 50 16.1 -00 59 47 2.332 3.273 154.2 7.7 11.6
2009 05 24 000000 14 49 32.3 -01 01 04 2.337 3.274 153.3 8.0 11.6
2009 05 25 000000 14 48 49.1 -01 02 30 2.342 3.274 152.4 8.2 11.6
2009 05 26 000000 14 48 06.7 -01 04 04 2.348 3.274 151.5 8.5 11.6
2009 05 27 000000 14 47 25.0 -01 05 45 2.354 3.275 150.6 8.7 11.6
2009 05 28 000000 14 46 44.1 -01 07 35 2.360 3.275 149.6 9.0 11.7
2009 05 29 000000 14 46 04.0 -01 09 32 2.366 3.275 148.7 9.3 11.7
2009 05 30 000000 14 45 24.8 -01 11 38 2.373 3.275 147.8 9.5 11.7


__________________


L

Posts: 131433
Date:
Permalink  
 

(451) Patientia
Epoch 2007 Oct. 27.0 TT = JDT 2454400.5 Goffin
M 46.88176 (2000.0) P Q
n 0.18404482 Peri. 340.35149 +0.33438737 -0.90512786
a 3.0609317 Node 89.39445 +0.89598323 +0.21893868
e 0.0772119 Incl. 15.22186 +0.29223132 +0.36443026
P 5.36 H 6.65 G 0.19 U 0


Ephemeris
Date TT R. A. (2000) Decl. Delta r Elong. Phase V
2008 01 01 10 35.05 +24 44.7 2.252 2.954 127.3 15.4 11.6
2008 01 06 10 34.98 +25 22.7 2.205 2.957 132.2 14.3 11.5
2008 01 11 10 34.27 +26 03.5 2.163 2.961 137.2 13.1 11.4
2008 01 16 10 32.92 +26 46.5 2.126 2.964 142.1 11.8 11.3
2008 01 21 10 30.95 +27 30.9 2.094 2.968 146.9 10.4 11.2
2008 01 26 10 28.40 +28 15.8 2.069 2.971 151.5 9.1 11.2
2008 01 31 10 25.33 +29 00.2 2.050 2.975 155.7 7.8 11.1
2008 02 05 10 21.79 +29 43.0 2.037 2.979 159.0 6.8 11.0
2008 02 10 10 17.89 +30 23.1 2.032 2.982 161.0 6.2 11.0
2008 02 15 10 13.75 +30 59.6 2.034 2.986 161.3 6.1 11.0
2008 02 20 10 09.50 +31 31.7 2.043 2.990 159.7 6.6 11.1
2008 02 25 10 05.26 +31 58.6 2.058 2.993 156.8 7.5 11.1



__________________
«First  <  1 2 | Page of 2  sorted by
Quick Reply

Please log in to post quick replies.



Create your own FREE Forum
Report Abuse
Powered by ActiveBoard